Date,TemperatureHighF,TemperatureAvgF,TemperatureLowF,DewpointHighF,DewpointAvgF,DewpointLowF,HumidityHigh,HumidityAvg,HumidityLow,PressureMaxIn,PressureMinIn,WindSpeedMaxMPH,WindSpeedAvgMPH,GustSpeedMaxMPH,PrecipitationSumIn
2013-2-1,33.0,28.0,22.0,18.0,10.1,5.0,64,47,35,30.05,29.55,15,6,36,0.01
2013-2-2,29.0,23.6,17.0,11.0,6.5,3.0,57,48,37,30.25,30.05,11,4,17,0.00
2013-2-3,27.0,24.4,21.0,21.0,18.7,12.0,89,79,52,30.06,29.73,6,2,12,0.00
2013-2-4,29.0,24.6,21.0,19.0,10.5,5.0,82,56,37,29.91,29.72,13,5,25,0.00
2013-2-5,28.0,23.5,20.0,22.0,10.5,5.0,87,58,44,30.02,29.91,7,1,11,0.00
2013-2-6,37.0,29.3,24.0,26.0,20.4,10.0,92,71,48,30.27,29.91,10,2,16,0.03
2013-2-7,27.0,21.3,15.0,15.0,1.4,-6.0,64,42,24,30.53,30.27,11,2,17,0.03
2013-2-8,33.0,28.3,18.0,30.0,24.8,16.0,95,87,68,30.51,29.65,18,4,35,0.00
2013-2-9,21.0,17.8,15.0,18.0,13.8,5.0,92,84,61,30.18,29.60,18,9,31,0.00
2013-2-10,38.0,23.0,11.0,7.0,2.7,-1.0,61,43,22,30.40,30.18,9,3,20,0.00
2013-2-11,41.0,31.6,20.0,40.0,25.8,5.0,96,80,45,30.34,29.59,6,1,12,0.17
2013-2-12,45.0,38.7,34.0,35.0,30.1,28.0,96,72,52,29.84,29.58,12,6,26,0.01
2013-2-13,42.0,34.8,28.0,28.0,25.1,23.0,83,68,51,29.85,29.70,7,2,14,0.01
2013-2-14,44.0,34.9,30.0,27.0,23.7,21.0,84,65,45,29.97,29.68,6,2,12,0.00
2013-2-15,52.0,39.0,29.0,36.0,31.0,23.0,92,74,50,29.98,29.88,9,4,17,0.00
2013-2-16,39.0,34.6,31.0,33.0,28.9,21.0,94,80,61,29.94,29.70,7,2,16,0.01
2013-2-17,32.0,23.1,18.0,22.0,13.9,2.0,89,69,44,29.70,29.33,18,9,37,0.01
2013-2-18,31.0,22.4,14.0,4.0,0.8,-3.0,57,41,25,30.12,29.61,19,8,31,0.01
2013-2-19,45.0,35.0,23.0,41.0,21.3,3.0,95,59,38,30.14,29.54,7,2,15,0.39
2013-2-20,42.0,33.6,27.0,41.0,22.5,13.0,96,65,44,29.74,29.49,13,6,24,0.40
2013-2-21,30.0,26.4,24.0,17.0,13.7,9.0,67,58,48,30.14,29.74,10,6,25,0.00
2013-2-22,37.0,30.4,24.0,26.0,21.5,16.0,82,70,56,30.38,30.13,10,2,16,0.00
2013-2-23,39.0,34.0,30.0,32.0,29.0,25.0,94,82,71,30.33,29.94,5,1,10,0.05
2013-2-24,37.0,33.5,30.0,36.0,32.5,29.0,96,95,94,29.94,29.70,9,2,15,0.58
2013-2-25,39.0,32.5,28.0,33.0,29.9,27.0,96,90,74,30.22,29.88,4,0,8,0.12
2013-2-26,43.0,35.2,30.0,36.0,30.6,28.0,94,84,65,30.34,30.17,3,0,5,0.01
2013-2-27,41.0,39.1,37.0,39.0,36.9,31.0,96,92,78,30.18,29.52,7,3,15,1.63
2013-2-28,48.0,38.4,34.0,38.0,34.9,33.0,96,88,63,29.62,29.50,7,2,13,0.59